Regional Weather Roundup
Issued by NWS

Home | Current Version | Previous Version | Graphics & Text | Print | Product List | Glossary On
Versions: 1 2 3 4 5 6 7 8 9 10 11 12 13 14 15 16 17 18 19 20 21 22 23 24 25 26 27 28 29 30 31 32 33 34 35 36 37 38 39 40 41 42 43 44 45 46 47 48 49 50
000
ASUS44 KMEG 140810
RWRTN
TENNESSEE HOURLY STATE WEATHER ROUNDUP
NATIONAL WEATHER SERVICE MEMPHIS TN
200 AM CST SUN FEB 14 2016

TNZ002-004-019-021-049-052-054-088>092-140900-
WEST TENNESSEE

CITY           SKY/WX    TMP DP  RH WIND       PRES   REMARKS
MEMPHIS INTL   CLOUDY    31   9  39 E8        30.30S WCI  23
NWS MEMPHIS      N/A     28 N/A N/A MISG        N/A
JACKSON        CLOUDY    27   8  44 E7        30.32F WCI  19
DYERSBURG      CLOUDY    27  10  50 E6        30.36R WCI  20
UNION CITY     CLOUDY    27   7  43 E7        30.34S WCI  19
PARIS          CLOUDY    25   7  46 E8        30.34F WCI  16
LEXINGTON      CLEAR     25   3  39 E5        30.33F WCI  19
$$

TNZ008-025-027-028-033-062-065-066-140900-
NORTH MIDDLE TENNESSEE

CITY           SKY/WX    TMP DP  RH WIND       PRES   REMARKS
NASHVILLE      CLOUDY    27   4  37 E10       30.38F WCI  17
CLARKSVILLE    CLOUDY    25   7  46 E9        30.37F WCI  15
SMYRNA         PTCLDY    26   7  44 E6        30.40F WCI  19
COOKEVILLE     CLOUDY    23   9  54 E3        30.36F
CROSSVILLE     CLOUDY    21   4  47 E6        30.33F WCI  13
$$

TNZ061-075-076-078-094-096-097-140900-
SOUTH MIDDLE TENNESSEE

CITY           SKY/WX    TMP DP  RH WIND       PRES   REMARKS
FAYETTEVILLE   CLOUDY    27  10  50 NE6       30.33F WCI  20
TULLAHOMA      MOCLDY    25   5  42 E7        30.33F WCI  17
WINCHESTER     CLOUDY    25   9  50 E3        30.35F
MCMINNVILLE    CLOUDY    25   7  46 NE7       30.35F WCI  17
COLUMBIA       CLOUDY    27   9  46 E6        30.34F WCI  20
SHELBYVILLE    CLOUDY    27  10  50 E6        30.37F WCI  20
$$

TNZ017-018-042-046-047-140900-
NORTHEAST TENNESSEE

CITY           SKY/WX    TMP DP  RH WIND       PRES   REMARKS
TRI CITIES     CLOUDY    13   5  70 CALM      30.38S
$$

TNZ012-013-036-069-073-074-140900-
CENTRAL EAST TENNESSEE

CITY           SKY/WX    TMP DP  RH WIND       PRES   REMARKS
KNOXVILLE      CLOUDY    22   6  50 NE8       30.38F WCI  12
OAK RIDGE      CLOUDY    22   6  50 NE3       30.42S
GATLINBURG     PTSUNNY   16   9  73 CALM      30.39S
MORRISTOWN     PTSUNNY   18   5  57 CALM      30.38R
$$

TNZ083-085-099-140900-
SOUTHEAST TENNESSEE

CITY           SKY/WX    TMP DP  RH WIND       PRES   REMARKS
CHATTANOOGA    CLOUDY    27   4  37 NE9       30.39F WCI  18
$$

SKY/WX REPORTED AS FAIR MEANS FEW OR NO CLOUDS BELOW
12 THOUSAND FEET.




USA.gov is the U.S. government's official web portal to all federal, state and local government web resources and services.